Flag for U.S.A. Weather past 2 weeks in Lansing, Michigan, U.S.A.

Now
43 °F

Clear.


Feels Like: 43 °F
Forecast: 40 / 75 °F
Wind: No wind

Location: Capital City Airport

Current Time: May 23, 2015 at 5:30:07 AM

Latest Report: May 23, 2015 at 4:53 AM


Visibility: 10 mi

Pressure: 30.34 "Hg

Humidity: 71%

Dew point: 34 °F

Location of LansingLocation

Historic Weather in Lansing — Graph

°F

Lansing temperature yesterday

Maximum temperature yesterday: 67 °F (at 4:53 PM)
Minimum temperature yesterday: 44 °F (at 6:53 AM)
Average temperature yesterday: 56 °F

Past Weeks' High & Low Weather Summary

 TemperatureHumidityPressure
High83 °F (May 8, 3:53 PM)100% (May 9, 4:53 AM)30.47 "Hg (May 9, 4:53 AM)
Low34 °F (May 20, 4:53 AM)26% (May 22, 3:53 PM)29.77 "Hg (May 11, 6:53 PM)
Average59 °F71%30.09 "Hg
* Reported May 8 3:53 AM — May 23 3:53 AM, Lansing, Weather by CustomWeather, © 2015

Note: Actual official high and low records may vary slightly from our data, if they occured in-between our weather recording intervals... More about our weather records

Advertising

Lansing weather history for previous 24 hours

 ConditionsComfort  
Time TempWeatherWind HumidityBarometerVisibility
3:53 AM
Sat, May 23
45 °FClear.3 mph65%30.33 "Hg10 mi
2:53 AM46 °FClear.3 mph63%30.32 "Hg10 mi
1:53 AM47 °FClear.5 mph61%30.32 "Hg10 mi
12:53 AM48 °FClear.6 mph54%30.33 "Hg10 mi
11:53 PM
Fri, May 22
47 °FClear.No wind59%30.34 "Hg10 mi
10:53 PM51 °FClear.No wind52%30.33 "Hg10 mi
9:53 PM55 °FSunny.5 mph44%30.29 "Hg10 mi
8:53 PM60 °FSunny.6 mph31%30.26 "Hg10 mi
7:53 PM63 °FSunny.8 mph28%30.25 "Hg10 mi
6:53 PM65 °FSunny.8 mph27%30.24 "Hg10 mi
5:53 PM67 °FSunny.8 mph27%30.23 "Hg10 mi
4:53 PM67 °FSunny.8 mph26%30.23 "Hg10 mi
3:53 PM66 °FSunny.9 mph26%30.23 "Hg10 mi
2:53 PM65 °FSunny.12 mph27%30.23 "Hg10 mi
1:53 PM62 °FSunny.5 mph31%30.22 "Hg10 mi
12:53 PM61 °FSunny.10 mph31%30.21 "Hg10 mi
11:53 AM60 °FSunny.10 mph31%30.21 "Hg10 mi
10:53 AM57 °FSunny.12 mph31%30.21 "Hg10 mi
9:53 AM54 °FSunny.7 mph37%30.19 "Hg10 mi
8:53 AM51 °FSunny.9 mph35%30.17 "Hg10 mi
7:53 AM49 °FSunny.7 mph46%30.15 "Hg10 mi
6:53 AM44 °FPassing clouds.5 mph60%30.13 "Hg10 mi
5:53 AM47 °FPassing clouds.3 mph48%30.11 "Hg10 mi
Weather by CustomWeather, © 2015

See weather overviewHow to use our weather pages